Time,TemperatureF,DewpointF,PressureIn,WindDirection,WindDirectionDegrees,WindSpeedMPH,WindSpeedGustMPH,Humidity,HourlyPrecipIn,Conditions,Clouds,dailyrainin,SolarRadiationWatts/m^2,SoftwareType,DateUTC
2013-05-02 00:00:00,65.7,65.4,30.12,North,5,0.0,0.0,99,0.00,,,0.00,0,Wunderground v.1.15,2013-05-02 10:00:00,
2013-05-02 00:10:00,66.0,66.0,30.11,North,5,1.0,1.0,100,0.00,,,0.00,0,Wunderground v.1.15,2013-05-02 10:10:00,
2013-05-02 00:15:00,66.1,66.1,30.11,North,5,1.0,1.0,100,0.00,,,0.00,0,Wunderground v.1.15,2013-05-02 10:15:00,
2013-05-02 00:25:00,65.8,65.5,30.11,North,5,1.0,3.0,99,0.00,,,0.00,0,Wunderground v.1.15,2013-05-02 10:25:00,
2013-05-02 00:30:00,65.9,65.9,30.11,North,5,1.0,2.0,100,0.00,,,0.00,0,Wunderground v.1.15,2013-05-02 10:30:00,
2013-05-02 00:35:00,66.0,66.0,30.10,North,5,2.0,3.0,100,0.00,,,0.00,0,Wunderground v.1.15,2013-05-02 10:35:00,
2013-05-02 00:40:00,66.2,66.2,30.10,North,360,2.0,2.0,100,0.00,,,0.00,0,Wunderground v.1.15,2013-05-02 10:40:00,
2013-05-02 00:45:00,66.4,66.4,30.10,North,360,1.0,2.0,100,0.00,,,0.00,0,Wunderground v.1.15,2013-05-02 10:45:00,
2013-05-02 00:50:00,66.4,66.4,30.10,North,360,0.0,0.0,100,0.00,,,0.00,0,Wunderground v.1.15,2013-05-02 10:50:00,
2013-05-02 00:55:00,66.5,66.5,30.10,North,360,1.0,2.0,100,0.00,,,0.00,0,Wunderground v.1.15,2013-05-02 10:55:00,
2013-05-02 01:00:00,66.5,66.2,30.10,North,360,1.0,1.0,99,0.00,,,0.00,0,Wunderground v.1.15,2013-05-02 11:00:00,
2013-05-02 01:10:00,66.5,66.2,30.09,North,360,1.0,1.0,99,0.00,,,0.00,0,Wunderground v.1.15,2013-05-02 11:10:00,
2013-05-02 01:15:00,66.4,66.1,30.09,North,360,0.0,1.0,99,0.00,,,0.00,0,Wunderground v.1.15,2013-05-02 11:15:00,
2013-05-02 01:20:00,66.4,66.1,30.09,North,360,0.0,0.0,99,0.00,,,0.00,0,Wunderground v.1.15,2013-05-02 11:20:00,
2013-05-02 01:25:00,66.4,66.1,30.09,North,360,0.0,0.0,99,0.00,,,0.00,0,Wunderground v.1.15,2013-05-02 11:25:00,
2013-05-02 01:30:00,66.4,65.8,30.09,North,360,0.0,0.0,98,0.00,,,0.00,0,Wunderground v.1.15,2013-05-02 11:30:00,
2013-05-02 01:35:00,66.4,65.8,30.09,North,360,0.0,0.0,98,0.00,,,0.00,0,Wunderground v.1.15,2013-05-02 11:35:00,
2013-05-02 01:45:00,66.2,65.6,30.09,North,360,0.0,0.0,98,0.00,,,0.00,0,Wunderground v.1.15,2013-05-02 11:45:00,
2013-05-02 01:50:00,66.2,65.6,30.09,North,360,1.0,1.0,98,0.00,,,0.00,0,Wunderground v.1.15,2013-05-02 11:50:00,
2013-05-02 01:55:00,66.2,65.9,30.09,North,360,1.0,2.0,99,0.00,,,0.00,0,Wunderground v.1.15,2013-05-02 11:55:00,
2013-05-02 02:00:00,66.0,65.4,30.09,North,360,1.0,1.0,98,0.00,,,0.00,0,Wunderground v.1.15,2013-05-02 12:00:00,
2013-05-02 02:10:00,66.2,65.6,30.09,North,360,1.0,3.0,98,0.00,,,0.00,0,Wunderground v.1.15,2013-05-02 12:10:00,
2013-05-02 02:15:00,66.2,65.6,30.09,North,360,1.0,3.0,98,0.00,,,0.00,0,Wunderground v.1.15,2013-05-02 12:15:00,
2013-05-02 02:20:00,66.1,65.5,30.09,North,360,1.0,1.0,98,0.00,,,0.00,0,Wunderground v.1.15,2013-05-02 12:20:00,
2013-05-02 02:25:00,66.1,65.5,30.08,North,360,0.0,1.0,98,0.00,,,0.00,0,Wunderground v.1.15,2013-05-02 12:25:00,
2013-05-02 02:35:00,66.0,65.4,30.08,North,360,0.0,0.0,98,0.00,,,0.00,0,Wunderground v.1.15,2013-05-02 12:35:00,
2013-05-02 02:40:00,66.0,65.4,30.08,North,360,0.0,0.0,98,0.00,,,0.00,0,Wunderground v.1.15,2013-05-02 12:40:00,
2013-05-02 02:45:00,65.9,65.3,30.08,North,360,0.0,0.0,98,0.00,,,0.00,0,Wunderground v.1.15,2013-05-02 12:45:00,
2013-05-02 02:50:00,65.8,65.2,30.09,North,360,0.0,0.0,98,0.00,,,0.00,0,Wunderground v.1.15,2013-05-02 12:50:00,
2013-05-02 02:55:00,65.8,65.5,30.09,North,360,1.0,4.0,99,0.00,,,0.00,0,Wunderground v.1.15,2013-05-02 12:55:00,
2013-05-02 03:00:00,65.9,65.6,30.09,North,355,2.0,2.0,99,0.00,,,0.00,0,Wunderground v.1.15,2013-05-02 13:00:00,
2013-05-02 03:10:00,66.2,65.6,30.09,North,355,1.0,1.0,98,0.00,,,0.00,0,Wunderground v.1.15,2013-05-02 13:10:00,
2013-05-02 03:15:00,66.2,65.3,30.08,North,355,0.0,1.0,97,0.00,,,0.00,0,Wunderground v.1.15,2013-05-02 13:15:00,
2013-05-02 03:20:00,66.3,65.4,30.08,North,355,0.0,0.0,97,0.00,,,0.00,0,Wunderground v.1.15,2013-05-02 13:20:00,
2013-05-02 03:25:00,66.5,65.3,30.08,North,355,0.0,0.0,96,0.00,,,0.00,0,Wunderground v.1.15,2013-05-02 13:25:00,
2013-05-02 03:30:00,66.7,65.5,30.08,North,355,0.0,3.0,96,0.00,,,0.00,0,Wunderground v.1.15,2013-05-02 13:30:00,
2013-05-02 03:35:00,67.0,65.5,30.08,North,355,1.0,3.0,95,0.00,,,0.00,0,Wunderground v.1.15,2013-05-02 13:35:00,
2013-05-02 03:45:00,67.2,65.7,30.08,North,355,0.0,1.0,95,0.00,,,0.00,0,Wunderground v.1.15,2013-05-02 13:45:00,
2013-05-02 03:55:00,67.2,65.7,30.08,North,355,0.0,2.0,95,0.00,,,0.00,0,Wunderground v.1.15,2013-05-02 13:55:00,
2013-05-02 04:00:00,67.2,65.7,30.08,North,355,2.0,2.0,95,0.00,,,0.00,0,Wunderground v.1.15,2013-05-02 14:00:00,
2013-05-02 04:10:00,67.2,65.7,30.08,North,355,2.0,2.0,95,0.00,,,0.00,0,Wunderground v.1.15,2013-05-02 14:10:00,
2013-05-02 04:20:00,67.1,65.9,30.09,North,355,1.0,1.0,96,0.00,,,0.00,0,Wunderground v.1.15,2013-05-02 14:20:00,
2013-05-02 04:25:00,67.0,65.8,30.09,North,355,1.0,1.0,96,0.00,,,0.00,0,Wunderground v.1.15,2013-05-02 14:25:00,
2013-05-02 04:30:00,66.9,65.4,30.09,North,355,0.0,0.0,95,0.00,,,0.00,0,Wunderground v.1.15,2013-05-02 14:30:00,
2013-05-02 04:35:00,66.9,65.4,30.09,North,355,0.0,0.0,95,0.00,,,0.00,0,Wunderground v.1.15,2013-05-02 14:35:00,
2013-05-02 04:40:00,66.9,65.4,30.08,North,355,0.0,0.0,95,0.00,,,0.00,0,Wunderground v.1.15,2013-05-02 14:40:00,
2013-05-02 04:50:00,67.1,65.3,30.09,North,355,1.0,1.0,94,0.00,,,0.00,0,Wunderground v.1.15,2013-05-02 14:50:00,
2013-05-02 04:55:00,67.2,65.4,30.09,North,355,0.0,1.0,94,0.00,,,0.00,0,Wunderground v.1.15,2013-05-02 14:55:00,
2013-05-02 05:00:00,67.2,65.7,30.09,North,355,1.0,2.0,95,0.00,,,0.00,0,Wunderground v.1.15,2013-05-02 15:00:00,
2013-05-02 05:10:00,67.2,65.7,30.10,North,355,1.0,2.0,95,0.00,,,0.00,0,Wunderground v.1.15,2013-05-02 15:10:00,
2013-05-02 05:15:00,67.0,65.5,30.10,North,5,2.0,3.0,95,0.00,,,0.00,0,Wunderground v.1.15,2013-05-02 15:15:00,
2013-05-02 05:25:00,67.3,65.2,30.10,NNW,346,2.0,4.0,93,0.00,,,0.00,0,Wunderground v.1.15,2013-05-02 15:25:00,
2013-05-02 05:30:00,67.4,65.3,30.10,NNW,346,1.0,2.0,93,0.00,,,0.00,0,Wunderground v.1.15,2013-05-02 15:30:00,
2013-05-02 05:35:00,67.5,65.4,30.10,NNW,346,1.0,2.0,93,0.00,,,0.00,0,Wunderground v.1.15,2013-05-02 15:35:00,
2013-05-02 05:40:00,67.7,65.3,30.10,NNW,346,1.0,1.0,92,0.00,,,0.00,0,Wunderground v.1.15,2013-05-02 15:40:00,
2013-05-02 05:45:00,67.9,65.5,30.10,NNW,346,1.0,2.0,92,0.00,,,0.00,0,Wunderground v.1.15,2013-05-02 15:45:00,
2013-05-02 05:50:00,68.0,65.3,30.10,NNW,347,1.0,1.0,91,0.00,,,0.00,0,Wunderground v.1.15,2013-05-02 15:50:00,
2013-05-02 05:55:00,68.2,65.5,30.10,NNW,345,1.0,1.0,91,0.00,,,0.00,0,Wunderground v.1.15,2013-05-02 15:55:00,
2013-05-02 06:00:00,68.2,65.5,30.10,NNW,345,1.0,1.0,91,0.00,,,0.00,0,Wunderground v.1.15,2013-05-02 16:00:00,
2013-05-02 06:10:00,68.3,65.3,30.11,NNE,20,2.0,2.0,90,0.00,,,0.00,11,Wunderground v.1.15,2013-05-02 16:10:00,
2013-05-02 06:20:00,68.6,65.2,30.11,North,5,1.0,4.0,89,0.00,,,0.00,28,Wunderground v.1.15,2013-05-02 16:20:00,
2013-05-02 06:25:00,68.6,65.2,30.11,North,5,1.0,4.0,89,0.00,,,0.00,33,Wunderground v.1.15,2013-05-02 16:25:00,
2013-05-02 06:30:00,68.8,65.4,30.11,North,9,1.0,8.0,89,0.00,,,0.00,28,Wunderground v.1.15,2013-05-02 16:30:00,
2013-05-02 06:40:00,68.9,65.2,30.12,North,355,3.0,7.0,88,0.00,,,0.00,30,Wunderground v.1.15,2013-05-02 16:40:00,
2013-05-02 06:45:00,69.0,65.3,30.12,North,355,3.0,7.0,88,0.00,,,0.00,25,Wunderground v.1.15,2013-05-02 16:45:00,
2013-05-02 06:50:00,69.1,65.4,30.13,NNE,17,3.0,3.0,88,0.00,,,0.00,39,Wunderground v.1.15,2013-05-02 16:50:00,
2013-05-02 06:55:00,69.2,65.5,30.13,NNE,12,3.0,6.0,88,0.00,,,0.00,63,Wunderground v.1.15,2013-05-02 16:55:00,
2013-05-02 07:00:00,69.3,65.3,30.13,North,10,5.0,6.0,87,0.00,,,0.00,83,Wunderground v.1.15,2013-05-02 17:00:00,
2013-05-02 07:10:00,69.4,65.7,30.14,NNE,13,4.0,4.0,88,0.00,,,0.00,72,Wunderground v.1.15,2013-05-02 17:10:00,
2013-05-02 07:15:00,69.3,65.6,30.14,North,355,4.0,6.0,88,0.00,,,0.00,69,Wunderground v.1.15,2013-05-02 17:15:00,
2013-05-02 07:20:00,69.3,65.6,30.14,NNE,24,5.0,5.0,88,0.00,,,0.00,60,Wunderground v.1.15,2013-05-02 17:20:00,
2013-05-02 07:25:00,69.3,65.6,30.14,North,9,4.0,5.0,88,0.00,,,0.00,60,Wunderground v.1.15,2013-05-02 17:25:00,
2013-05-02 07:35:00,69.3,65.6,30.14,North,355,4.0,4.0,88,0.00,,,0.00,132,Wunderground v.1.15,2013-05-02 17:35:00,
2013-05-02 07:40:00,69.4,65.7,30.14,North,355,3.0,3.0,88,0.00,,,0.00,132,Wunderground v.1.15,2013-05-02 17:40:00,
2013-05-02 07:45:00,69.6,65.9,30.14,North,355,2.0,3.0,88,0.00,,,0.00,127,Wunderground v.1.15,2013-05-02 17:45:00,
2013-05-02 07:55:00,70.1,66.0,30.14,NNE,16,3.0,5.0,87,0.00,,,0.00,176,Wunderground v.1.15,2013-05-02 17:55:00,
2013-05-02 08:00:00,70.5,66.4,30.14,North,5,3.0,6.0,87,0.00,,,0.00,171,Wunderground v.1.15,2013-05-02 18:00:00,
2013-05-02 08:10:00,71.0,66.6,30.14,NNW,343,2.0,3.0,86,0.00,,,0.00,174,Wunderground v.1.15,2013-05-02 18:10:00,
2013-05-02 08:20:00,71.4,67.0,30.14,ENE,64,2.0,5.0,86,0.00,,,0.00,726,Wunderground v.1.15,2013-05-02 18:20:00,
2013-05-02 08:25:00,72.4,67.6,30.13,North,5,2.0,5.0,85,0.00,,,0.00,661,Wunderground v.1.15,2013-05-02 18:25:00,
2013-05-02 08:30:00,73.3,67.8,30.13,North,351,2.0,2.0,83,0.00,,,0.00,302,Wunderground v.1.15,2013-05-02 18:30:00,
2013-05-02 08:35:00,73.9,68.1,30.14,ENE,57,2.0,2.0,82,0.00,,,0.00,262,Wunderground v.1.15,2013-05-02 18:35:00,
2013-05-02 08:40:00,74.2,68.3,30.14,NE,52,2.0,2.0,82,0.00,,,0.00,223,Wunderground v.1.15,2013-05-02 18:40:00,
2013-05-02 08:50:00,74.3,68.8,30.14,East,94,1.0,1.0,83,0.00,,,0.00,313,Wunderground v.1.15,2013-05-02 18:50:00,
2013-05-02 09:00:00,75.3,69.4,30.14,East,84,6.0,6.0,82,0.00,,,0.00,809,Wunderground v.1.15,2013-05-02 19:00:00,
2013-05-02 09:10:00,75.4,69.5,30.14,ESE,114,8.0,8.0,82,0.00,,,0.00,860,Wunderground v.1.15,2013-05-02 19:10:00,
2013-05-02 09:20:00,75.5,70.0,30.14,ENE,71,7.0,7.0,83,0.00,,,0.00,758,Wunderground v.1.15,2013-05-02 19:20:00,
2013-05-02 09:25:00,75.9,70.4,30.14,SE,130,6.0,10.0,83,0.00,,,0.00,754,Wunderground v.1.15,2013-05-02 19:25:00,
2013-05-02 09:30:00,76.1,70.2,30.14,ENE,71,6.0,6.0,82,0.00,,,0.00,738,Wunderground v.1.15,2013-05-02 19:30:00,
2013-05-02 09:35:00,76.0,70.1,30.13,SE,136,5.0,6.0,82,0.00,,,0.00,772,Wunderground v.1.15,2013-05-02 19:35:00,
2013-05-02 09:40:00,76.3,71.1,30.14,SE,142,6.0,14.0,84,0.00,,,0.00,842,Wunderground v.1.15,2013-05-02 19:40:00,
2013-05-02 09:45:00,75.9,70.7,30.14,ESE,117,8.0,15.0,84,0.00,,,0.00,867,Wunderground v.1.15,2013-05-02 19:45:00,
2013-05-02 09:50:00,75.8,71.0,30.14,SE,134,9.0,12.0,85,0.00,,,0.00,1042,Wunderground v.1.15,2013-05-02 19:50:00,
2013-05-02 09:55:00,75.6,70.8,30.14,ENE,61,9.0,12.0,85,0.00,,,0.00,594,Wunderground v.1.15,2013-05-02 19:55:00,
2013-05-02 10:00:00,75.2,71.4,30.14,NE,46,9.0,9.0,88,0.00,,,0.00,550,Wunderground v.1.15,2013-05-02 20:00:00,
2013-05-02 10:10:00,74.2,69.7,30.14,NNE,22,8.0,8.0,86,0.00,,,0.00,503,Wunderground v.1.15,2013-05-02 20:10:00,
2013-05-02 10:15:00,74.2,69.7,30.14,ESE,119,7.0,9.0,86,0.00,,,0.00,940,Wunderground v.1.15,2013-05-02 20:15:00,
2013-05-02 10:20:00,74.5,69.7,30.14,ENE,65,6.0,6.0,85,0.00,,,0.00,522,Wunderground v.1.15,2013-05-02 20:20:00,
2013-05-02 10:30:00,75.2,70.0,30.14,SSE,148,7.0,13.0,84,0.00,,,0.00,765,Wunderground v.1.15,2013-05-02 20:30:00,
2013-05-02 10:35:00,75.0,69.8,30.14,ESE,117,9.0,13.0,84,0.00,,,0.00,656,Wunderground v.1.15,2013-05-02 20:35:00,
2013-05-02 10:40:00,75.2,70.7,30.15,East,101,10.0,10.0,86,0.00,,,0.00,538,Wunderground v.1.15,2013-05-02 20:40:00,
2013-05-02 10:45:00,75.1,71.3,30.14,SE,133,9.0,13.0,88,0.00,,,0.00,475,Wunderground v.1.15,2013-05-02 20:45:00,
2013-05-02 10:50:00,74.0,70.2,30.14,ESE,113,10.0,10.0,88,0.00,,,0.00,515,Wunderground v.1.15,2013-05-02 20:50:00,
2013-05-02 11:00:00,74.1,70.3,30.14,ENE,70,9.0,9.0,88,0.00,,,0.00,313,Wunderground v.1.15,2013-05-02 21:00:00,
2013-05-02 11:10:00,73.7,70.6,30.14,East,101,6.0,6.0,90,0.00,,,0.00,376,Wunderground v.1.15,2013-05-02 21:10:00,
2013-05-02 11:15:00,73.6,70.5,30.15,East,81,6.0,12.0,90,0.00,,,0.00,429,Wunderground v.1.15,2013-05-02 21:15:00,
2013-05-02 11:25:00,73.3,70.2,30.14,SE,142,7.0,12.0,90,0.00,,,0.00,322,Wunderground v.1.15,2013-05-02 21:25:00,
2013-05-02 11:30:00,73.2,70.1,30.15,ESE,109,6.0,7.0,90,0.00,,,0.00,380,Wunderground v.1.15,2013-05-02 21:30:00,
2013-05-02 11:40:00,73.3,69.9,30.14,NE,44,7.0,7.0,89,0.00,,,0.00,404,Wunderground v.1.15,2013-05-02 21:40:00,
2013-05-02 11:45:00,73.1,69.7,30.14,East,92,6.0,7.0,89,0.00,,,0.00,417,Wunderground v.1.15,2013-05-02 21:45:00,
2013-05-02 11:50:00,73.1,70.0,30.14,ENE,60,6.0,6.0,90,0.00,,,0.00,415,Wunderground v.1.15,2013-05-02 21:50:00,
2013-05-02 11:55:00,73.4,70.0,30.14,ENE,72,5.0,6.0,89,0.00,,,0.00,624,Wunderground v.1.15,2013-05-02 21:55:00,
2013-05-02 12:00:00,73.4,70.0,30.13,SE,132,6.0,10.0,89,0.00,,,0.00,863,Wunderground v.1.15,2013-05-02 22:00:00,
2013-05-02 12:10:00,73.8,69.7,30.13,East,94,6.0,9.0,87,0.00,,,0.00,462,Wunderground v.1.15,2013-05-02 22:10:00,
2013-05-02 12:15:00,73.7,69.6,30.13,ENE,58,6.0,9.0,87,0.00,,,0.00,432,Wunderground v.1.15,2013-05-02 22:15:00,
2013-05-02 12:20:00,73.8,69.7,30.13,ENE,66,4.0,6.0,87,0.00,,,0.00,359,Wunderground v.1.15,2013-05-02 22:20:00,
2013-05-02 12:30:00,73.7,68.9,30.13,East,100,5.0,5.0,85,0.00,,,0.00,352,Wunderground v.1.15,2013-05-02 22:30:00,
2013-05-02 12:35:00,73.7,68.9,30.13,East,91,6.0,6.0,85,0.00,,,0.00,290,Wunderground v.1.15,2013-05-02 22:35:00,
2013-05-02 12:45:00,73.7,69.6,30.12,ENE,67,6.0,7.0,87,0.00,,,0.00,506,Wunderground v.1.15,2013-05-02 22:45:00,
2013-05-02 12:50:00,73.9,70.1,30.12,ENE,78,5.0,5.0,88,0.00,,,0.00,383,Wunderground v.1.15,2013-05-02 22:50:00,
2013-05-02 12:55:00,74.1,70.3,30.12,ENE,59,4.0,5.0,88,0.00,,,0.00,459,Wunderground v.1.15,2013-05-02 22:55:00,
2013-05-02 13:00:00,74.0,70.6,30.12,East,101,5.0,5.0,89,0.00,,,0.00,432,Wunderground v.1.15,2013-05-02 23:00:00,
2013-05-02 13:10:00,73.2,70.1,30.11,East,89,7.0,7.0,90,0.00,,,0.00,343,Wunderground v.1.15,2013-05-02 23:10:00,
2013-05-02 13:15:00,72.8,69.7,30.11,East,84,8.0,8.0,90,0.00,,,0.00,267,Wunderground v.1.15,2013-05-02 23:15:00,
2013-05-02 13:20:00,72.5,69.4,30.11,East,79,7.0,12.0,90,0.00,,,0.00,213,Wunderground v.1.15,2013-05-02 23:20:00,
2013-05-02 13:25:00,72.1,69.0,30.11,ESE,117,7.0,12.0,90,0.00,,,0.00,185,Wunderground v.1.15,2013-05-02 23:25:00,
2013-05-02 13:35:00,72.0,68.9,30.11,ENE,76,5.0,9.0,90,0.00,,,0.00,369,Wunderground v.1.15,2013-05-02 23:35:00,
2013-05-02 13:40:00,72.3,69.2,30.11,ENE,76,6.0,9.0,90,0.00,,,0.00,383,Wunderground v.1.15,2013-05-02 23:40:00,
2013-05-02 13:45:00,72.6,69.2,30.10,ENE,66,7.0,9.0,89,0.00,,,0.00,285,Wunderground v.1.15,2013-05-02 23:45:00,
2013-05-02 13:50:00,72.7,68.9,30.10,ENE,66,7.0,7.0,88,0.00,,,0.00,278,Wunderground v.1.15,2013-05-02 23:50:00,
2013-05-02 13:55:00,72.7,68.6,30.11,East,86,6.0,7.0,87,0.00,,,0.00,251,Wunderground v.1.15,2013-05-02 23:55:00,
2013-05-02 14:00:00,72.7,68.3,30.10,ENE,78,6.0,6.0,86,0.00,,,0.00,220,Wunderground v.1.15,2013-05-03 00:00:00,
2013-05-02 14:10:00,72.9,68.8,30.10,SE,134,6.0,6.0,87,0.00,,,0.00,167,Wunderground v.1.15,2013-05-03 00:10:00,
2013-05-02 14:15:00,72.9,68.5,30.10,SE,132,5.0,6.0,86,0.00,,,0.00,160,Wunderground v.1.15,2013-05-03 00:15:00,
2013-05-02 14:20:00,72.8,68.0,30.10,SE,140,6.0,6.0,85,0.00,,,0.00,160,Wunderground v.1.15,2013-05-03 00:20:00,
2013-05-02 14:30:00,72.7,67.9,30.10,SE,132,7.0,7.0,85,0.00,,,0.00,109,Wunderground v.1.15,2013-05-03 00:30:00,
2013-05-02 14:35:00,72.7,68.3,30.10,SE,124,4.0,7.0,86,0.00,,,0.00,88,Wunderground v.1.15,2013-05-03 00:35:00,
2013-05-02 14:40:00,72.8,68.4,30.10,SE,128,2.0,4.0,86,0.00,,,0.00,88,Wunderground v.1.15,2013-05-03 00:40:00,
2013-05-02 14:45:00,72.7,68.6,30.10,ESE,110,2.0,4.0,87,0.00,,,0.00,98,Wunderground v.1.15,2013-05-03 00:45:00,
2013-05-02 14:50:00,72.6,68.5,30.10,ESE,105,2.0,3.0,87,0.00,,,0.00,100,Wunderground v.1.15,2013-05-03 00:50:00,
2013-05-02 14:55:00,72.5,68.4,30.10,ESE,106,3.0,5.0,87,0.00,,,0.00,79,Wunderground v.1.15,2013-05-03 00:55:00,
2013-05-02 15:00:00,72.4,69.0,30.09,ENE,67,4.0,4.0,89,0.00,,,0.00,76,Wunderground v.1.15,2013-05-03 01:00:00,
2013-05-02 15:10:00,72.1,69.3,30.09,ENE,72,3.0,3.0,91,0.00,,,0.00,53,Wunderground v.1.15,2013-05-03 01:10:00,
2013-05-02 15:15:00,71.8,69.0,30.09,East,89,3.0,6.0,91,0.00,,,0.00,46,Wunderground v.1.15,2013-05-03 01:15:00,
2013-05-02 15:20:00,71.7,68.6,30.09,ESE,105,4.0,10.0,90,0.00,,,0.00,72,Wunderground v.1.15,2013-05-03 01:20:00,
2013-05-02 15:25:00,71.6,68.5,30.09,East,83,5.0,10.0,90,0.00,,,0.00,83,Wunderground v.1.15,2013-05-03 01:25:00,
2013-05-02 15:30:00,71.6,68.2,30.09,ENE,61,4.0,4.0,89,0.00,,,0.00,105,Wunderground v.1.15,2013-05-03 01:30:00,
2013-05-02 15:35:00,71.6,67.5,30.09,NNE,28,3.0,4.0,87,0.00,,,0.00,121,Wunderground v.1.15,2013-05-03 01:35:00,
2013-05-02 15:40:00,71.7,67.3,30.09,ENE,67,3.0,3.0,86,0.00,,,0.00,134,Wunderground v.1.15,2013-05-03 01:40:00,
2013-05-02 15:50:00,72.0,67.2,30.09,NNE,14,4.0,4.0,85,0.00,,,0.00,93,Wunderground v.1.15,2013-05-03 01:50:00,
2013-05-02 15:55:00,72.0,67.6,30.09,East,93,3.0,4.0,86,0.00,,,0.00,74,Wunderground v.1.15,2013-05-03 01:55:00,
2013-05-02 16:00:00,71.8,67.7,30.09,East,80,2.0,4.0,87,0.00,,,0.00,49,Wunderground v.1.15,2013-05-03 02:00:00,
2013-05-02 16:10:00,71.4,67.3,30.09,East,88,1.0,1.0,87,0.00,,,0.00,47,Wunderground v.1.15,2013-05-03 02:10:00,
2013-05-02 16:15:00,71.2,67.8,30.10,North,5,1.0,6.0,89,0.00,,,0.00,40,Wunderground v.1.15,2013-05-03 02:15:00,
2013-05-02 16:20:00,70.8,67.7,30.10,North,355,3.0,3.0,90,0.00,,,0.00,76,Wunderground v.1.15,2013-05-03 02:20:00,
2013-05-02 16:25:00,70.5,67.7,30.10,NW,324,3.0,3.0,91,0.00,,,0.00,127,Wunderground v.1.15,2013-05-03 02:25:00,
2013-05-02 16:30:00,70.3,68.2,30.10,NW,324,2.0,3.0,93,0.00,,,0.00,139,Wunderground v.1.15,2013-05-03 02:30:00,
2013-05-02 16:35:00,70.1,68.0,30.10,NNW,328,3.0,3.0,93,0.00,,,0.00,120,Wunderground v.1.15,2013-05-03 02:35:00,
2013-05-02 16:40:00,70.1,68.0,30.10,NNW,329,3.0,4.0,93,0.00,,,0.00,95,Wunderground v.1.15,2013-05-03 02:40:00,
2013-05-02 16:45:00,70.1,68.0,30.10,NNW,329,3.0,4.0,93,0.00,,,0.00,54,Wunderground v.1.15,2013-05-03 02:45:00,
2013-05-02 16:50:00,70.0,67.9,30.10,NNW,332,2.0,6.0,93,0.00,,,0.00,47,Wunderground v.1.15,2013-05-03 02:50:00,
2013-05-02 17:00:00,70.0,67.6,30.10,NNW,338,3.0,4.0,92,0.00,,,0.00,49,Wunderground v.1.15,2013-05-03 03:00:00,
2013-05-02 17:10:00,70.0,67.3,30.10,NW,321,3.0,3.0,91,0.00,,,0.00,47,Wunderground v.1.15,2013-05-03 03:10:00,
2013-05-02 17:15:00,70.1,67.0,30.10,NW,322,3.0,3.0,90,0.00,,,0.00,42,Wunderground v.1.15,2013-05-03 03:15:00,
2013-05-02 17:25:00,70.2,66.8,30.10,NW,320,2.0,2.0,89,0.00,,,0.00,49,Wunderground v.1.15,2013-05-03 03:25:00,
2013-05-02 17:30:00,70.1,66.7,30.10,NW,321,1.0,1.0,89,0.00,,,0.00,42,Wunderground v.1.15,2013-05-03 03:30:00,
2013-05-02 17:35:00,70.0,66.6,30.10,NW,321,1.0,1.0,89,0.00,,,0.00,28,Wunderground v.1.15,2013-05-03 03:35:00,
2013-05-02 17:40:00,70.2,66.8,30.10,NW,321,1.0,1.0,89,0.00,,,0.00,32,Wunderground v.1.15,2013-05-03 03:40:00,
2013-05-02 17:50:00,70.3,66.9,30.11,NNE,17,1.0,1.0,89,0.00,,,0.00,25,Wunderground v.1.15,2013-05-03 03:50:00,
2013-05-02 17:55:00,70.3,66.9,30.11,NNE,18,1.0,2.0,89,0.00,,,0.00,19,Wunderground v.1.15,2013-05-03 03:55:00,
2013-05-02 18:00:00,70.2,66.8,30.11,North,355,2.0,2.0,89,0.00,,,0.00,19,Wunderground v.1.15,2013-05-03 04:00:00,
2013-05-02 18:05:00,70.0,66.6,30.11,NNW,342,3.0,3.0,89,0.00,,,0.00,18,Wunderground v.1.15,2013-05-03 04:05:00,
2013-05-02 18:10:00,70.0,66.6,30.11,NW,323,3.0,4.0,89,0.00,,,0.00,12,Wunderground v.1.15,2013-05-03 04:10:00,
2013-05-02 18:15:00,69.9,66.8,30.11,NNW,333,3.0,4.0,90,0.00,,,0.00,12,Wunderground v.1.15,2013-05-03 04:15:00,
2013-05-02 18:20:00,69.8,66.7,30.11,NW,321,3.0,3.0,90,0.00,,,0.00,12,Wunderground v.1.15,2013-05-03 04:20:00,
2013-05-02 18:25:00,69.7,66.6,30.11,NW,321,2.0,3.0,90,0.00,,,0.00,9,Wunderground v.1.15,2013-05-03 04:25:00,
2013-05-02 18:30:00,69.7,66.6,30.11,NW,320,1.0,4.0,90,0.00,,,0.00,5,Wunderground v.1.15,2013-05-03 04:30:00,
2013-05-02 18:35:00,69.8,66.7,30.11,NW,321,2.0,4.0,90,0.00,,,0.00,0,Wunderground v.1.15,2013-05-03 04:35:00,
2013-05-02 18:40:00,69.8,66.7,30.11,NW,324,2.0,2.0,90,0.00,,,0.00,0,Wunderground v.1.15,2013-05-03 04:40:00,
2013-05-02 18:50:00,69.9,66.5,30.12,NW,324,0.0,0.0,89,0.00,,,0.00,0,Wunderground v.1.15,2013-05-03 04:50:00,
2013-05-02 18:55:00,69.9,66.8,30.12,NW,324,0.0,0.0,90,0.00,,,0.00,0,Wunderground v.1.15,2013-05-03 04:55:00,
2013-05-02 19:00:00,69.8,66.7,30.12,NW,324,0.0,0.0,90,0.00,,,0.00,0,Wunderground v.1.15,2013-05-03 05:00:00,
2013-05-02 19:10:00,69.7,66.6,30.12,NW,324,0.0,2.0,90,0.00,,,0.00,0,Wunderground v.1.15,2013-05-03 05:10:00,
2013-05-02 19:15:00,69.7,66.6,30.12,NW,324,0.0,2.0,90,0.00,,,0.00,0,Wunderground v.1.15,2013-05-03 05:15:00,
2013-05-02 19:25:00,69.5,66.4,30.13,NW,324,0.0,2.0,90,0.00,,,0.00,0,Wunderground v.1.15,2013-05-03 05:25:00,
2013-05-02 19:30:00,69.5,66.4,30.13,NW,324,1.0,1.0,90,0.00,,,0.00,0,Wunderground v.1.15,2013-05-03 05:30:00,
2013-05-02 19:35:00,69.6,66.9,30.13,NW,324,1.0,1.0,91,0.00,,,0.00,0,Wunderground v.1.15,2013-05-03 05:35:00,
2013-05-02 19:40:00,69.5,66.4,30.13,NNW,327,0.0,5.0,90,0.00,,,0.00,0,Wunderground v.1.15,2013-05-03 05:40:00,
2013-05-02 19:45:00,69.7,67.0,30.13,North,360,1.0,5.0,91,0.00,,,0.00,0,Wunderground v.1.15,2013-05-03 05:45:00,
2013-05-02 19:50:00,69.6,66.9,30.13,North,360,2.0,2.0,91,0.00,,,0.00,0,Wunderground v.1.15,2013-05-03 05:50:00,
2013-05-02 19:55:00,69.5,66.8,30.14,North,360,1.0,2.0,91,0.00,,,0.00,0,Wunderground v.1.15,2013-05-03 05:55:00,
2013-05-02 20:00:00,69.2,66.8,30.14,North,360,0.0,0.0,92,0.00,,,0.00,0,Wunderground v.1.15,2013-05-03 06:00:00,
2013-05-02 20:10:00,68.9,66.5,30.14,NW,317,2.0,2.0,92,0.00,,,0.00,0,Wunderground v.1.15,2013-05-03 06:10:00,
2013-05-02 20:20:00,68.3,66.2,30.14,NW,317,2.0,2.0,93,0.00,,,0.00,0,Wunderground v.1.15,2013-05-03 06:20:00,
2013-05-02 20:25:00,68.0,65.9,30.14,NW,317,1.0,2.0,93,0.00,,,0.00,0,Wunderground v.1.15,2013-05-03 06:25:00,
2013-05-02 20:30:00,67.7,65.6,30.14,NW,317,0.0,2.0,93,0.00,,,0.00,0,Wunderground v.1.15,2013-05-03 06:30:00,
2013-05-02 20:35:00,67.3,65.5,30.15,NW,317,1.0,2.0,94,0.00,,,0.00,0,Wunderground v.1.15,2013-05-03 06:35:00,
2013-05-02 20:45:00,66.6,65.1,30.15,NW,323,1.0,1.0,95,0.00,,,0.00,0,Wunderground v.1.15,2013-05-03 06:45:00,
2013-05-02 20:50:00,66.6,65.4,30.15,NW,323,1.0,1.0,96,0.00,,,0.00,0,Wunderground v.1.15,2013-05-03 06:50:00,
2013-05-02 20:55:00,66.6,65.1,30.15,NW,323,0.0,1.0,95,0.00,,,0.00,0,Wunderground v.1.15,2013-05-03 06:55:00,
2013-05-02 21:00:00,66.8,65.3,30.14,NW,323,0.0,0.0,95,0.00,,,0.00,0,Wunderground v.1.15,2013-05-03 07:00:00,
2013-05-02 21:10:00,67.1,65.3,30.14,NW,323,1.0,3.0,94,0.00,,,0.00,0,Wunderground v.1.15,2013-05-03 07:10:00,
2013-05-02 21:15:00,67.4,65.3,30.14,NW,322,2.0,4.0,93,0.00,,,0.00,0,Wunderground v.1.15,2013-05-03 07:15:00,
2013-05-02 21:20:00,67.8,65.4,30.14,NW,322,3.0,3.0,92,0.00,,,0.00,0,Wunderground v.1.15,2013-05-03 07:20:00,
2013-05-02 21:25:00,68.1,65.4,30.14,NW,322,3.0,3.0,91,0.00,,,0.00,0,Wunderground v.1.15,2013-05-03 07:25:00,
2013-05-02 21:30:00,68.0,65.3,30.14,NW,322,2.0,2.0,91,0.00,,,0.00,0,Wunderground v.1.15,2013-05-03 07:30:00,
2013-05-02 21:35:00,67.6,64.9,30.14,NW,322,2.0,3.0,91,0.00,,,0.00,0,Wunderground v.1.15,2013-05-03 07:35:00,
2013-05-02 21:40:00,67.1,64.7,30.14,NW,322,2.0,2.0,92,0.00,,,0.00,0,Wunderground v.1.15,2013-05-03 07:40:00,
2013-05-02 21:45:00,66.4,64.3,30.15,NW,322,1.0,2.0,93,0.00,,,0.00,0,Wunderground v.1.15,2013-05-03 07:45:00,
2013-05-02 21:55:00,65.6,63.8,30.16,NNW,333,1.0,4.0,94,0.00,,,0.00,0,Wunderground v.1.15,2013-05-03 07:55:00,
2013-05-02 22:00:00,65.0,63.2,30.16,North,5,3.0,5.0,94,0.00,,,0.00,0,Wunderground v.1.15,2013-05-03 08:00:00,
2013-05-02 22:10:00,64.8,62.7,30.15,NNW,327,4.0,6.0,93,0.00,,,0.00,0,Wunderground v.1.15,2013-05-03 08:10:00,
2013-05-02 22:15:00,64.8,62.4,30.15,NW,319,5.0,6.0,92,0.00,,,0.00,0,Wunderground v.1.15,2013-05-03 08:15:00,
2013-05-02 22:20:00,64.8,62.4,30.15,NW,311,5.0,5.0,92,0.00,,,0.00,0,Wunderground v.1.15,2013-05-03 08:20:00,
2013-05-02 22:25:00,64.8,62.4,30.15,NW,313,4.0,5.0,92,0.00,,,0.00,0,Wunderground v.1.15,2013-05-03 08:25:00,
2013-05-02 22:30:00,64.8,62.1,30.15,NW,313,3.0,3.0,91,0.00,,,0.00,0,Wunderground v.1.15,2013-05-03 08:30:00,
2013-05-02 22:35:00,64.6,61.9,30.15,NW,313,3.0,4.0,91,0.00,,,0.00,0,Wunderground v.1.15,2013-05-03 08:35:00,
2013-05-02 22:45:00,64.4,61.7,30.15,NW,313,1.0,2.0,91,0.00,,,0.00,0,Wunderground v.1.15,2013-05-03 08:45:00,
2013-05-02 22:50:00,64.1,61.4,30.15,NW,324,1.0,1.0,91,0.00,,,0.00,0,Wunderground v.1.15,2013-05-03 08:50:00,
2013-05-02 22:55:00,64.0,61.6,30.15,North,5,2.0,5.0,92,0.00,,,0.00,0,Wunderground v.1.15,2013-05-03 08:55:00,
2013-05-02 23:00:00,63.6,61.5,30.15,NNW,345,3.0,3.0,93,0.00,,,0.00,0,Wunderground v.1.15,2013-05-03 09:00:00,
2013-05-02 23:10:00,63.5,61.4,30.15,NNW,345,1.0,2.0,93,0.00,,,0.00,0,Wunderground v.1.15,2013-05-03 09:10:00,
2013-05-02 23:20:00,63.7,61.6,30.14,NNW,345,0.0,0.0,93,0.00,,,0.00,0,Wunderground v.1.15,2013-05-03 09:20:00,
2013-05-02 23:25:00,63.7,61.6,30.14,NNW,345,0.0,0.0,93,0.00,,,0.00,0,Wunderground v.1.15,2013-05-03 09:25:00,
2013-05-02 23:30:00,63.8,61.7,30.14,NNW,345,0.0,0.0,93,0.00,,,0.00,0,Wunderground v.1.15,2013-05-03 09:30:00,
2013-05-02 23:35:00,63.9,61.8,30.14,NNW,345,0.0,0.0,93,0.00,,,0.00,0,Wunderground v.1.15,2013-05-03 09:35:00,
2013-05-02 23:40:00,64.0,61.9,30.14,NNW,345,0.0,0.0,93,0.00,,,0.00,0,Wunderground v.1.15,2013-05-03 09:40:00,
2013-05-02 23:45:00,64.1,62.0,30.13,NNW,345,1.0,1.0,93,0.00,,,0.00,0,Wunderground v.1.15,2013-05-03 09:45:00,
2013-05-02 23:50:00,64.3,61.9,30.13,NNW,345,1.0,1.0,92,0.00,,,0.00,0,Wunderground v.1.15,2013-05-03 09:50:00,